AirNav   Air Wisconsin Up To $57,000 Bonus
 
 1246 users online  

CL83 Joe Heidrick Heliport
Woodland, California, USA

GOING TO WOODLAND?


FAA INFORMATION EFFECTIVE 07 NOVEMBER 2019

Location

FAA Identifier: CL83
Lat/Long: 38-39-57.7000N 121-49-27.1700W
38-39.961667N 121-49.452833W
38.6660278,-121.8242139
(estimated)
Elevation: 120 ft. / 37 m (estimated)
Variation: 16E (1980)
From city: 2 miles W of WOODLAND, CA
Time zone: UTC -8 (UTC -7 during Daylight Saving Time)
Zip code: 95695

Heliport Operations

Heliport use: Private use. Permission required prior to landing
Activation date: 07/1986
Control tower: no
ARTCC: OAKLAND CENTER
FSS: RANCHO MURIETA FLIGHT SERVICE STATION
Attendance: ON CALL
Wind indicator: yes
Segmented circle: no

Heliport Communications

WX AWOS-3 at DWA (5 nm S): 125.775 (530-750-2759)
WX AWOS-3 at EDU (8 nm S): 119.025 (530-754-6839)
WX ASOS at SMF (11 nm E): PHONE 916-649-3996
WX ASOS at SAC (18 nm SE): PHONE 916-421-0923
WX ASOS at VCB (18 nm S): 134.75 (707-448-1594)
WX AWOS-3 at MCC (20 nm E): 125.975 (916-641-1272)

Nearby radio navigation aids

VOR radial/distance  VOR name  Freq  Var
SACr299/18.5SACRAMENTO VORTAC115.2017E
MCCr253/19.7MC CLELLAN VOR/DME109.2017E
ILAr141/26.1WILLIAMS VORTAC114.4018E
MYVr188/28.5MARYSVILLE VOR/DME110.8016E
CCRr359/38.7CONCORD VOR/DME117.0017E
SGDr024/39.0SCAGGS ISLAND VORTAC112.1017E

Heliport Services

Runway Information

Helipad H1

Dimensions: 80 x 50 ft. / 24 x 15 m
Surface: turf
Latitude: 38-39.961667N
Longitude: 121-49.452833W
Elevation: 120.0 ft.
Traffic pattern: leftleft

Heliport Ownership and Management from official FAA records

Ownership: Privately-owned
Owner: JOE HEIDRICK, JR.
36826 CO RD 24
WOODLAND, CA 95695
Phone 530-662-3046
Manager: JOE HEIDRICK, JR.
36826 CO RD 24
WOODLAND, CA 95695
Phone 530-662-8252

Heliport Operational Statistics

Aircraft based on the field: 1
Helicopters: 1
    

Additional Remarks

A52-H1 TELEPHONE LINES 1/4 MILE E AND S. HANGAR NEXT TO HELIPORT.
FOR CD CTC OAKLAND ARTCC AT 510-745-3380.

Instrument Procedures

There are no published instrument procedures at CL83.

Some nearby airports with instrument procedures:

O41 - Watts-Woodland Airport (2 nm W)
KDWA - Yolo County Airport (5 nm S)
KEDU - University Airport (8 nm S)
KSMF - Sacramento International Airport (11 nm E)
KSAC - Sacramento Executive Airport (18 nm SE)
KVCB - Nut Tree Airport (18 nm S)
KMCC - Mc Clellan Airfield (20 nm E)
 
Loc | Ops | Rwys | IFR | FBO | Links
Com | Nav | Svcs | Stats | Notes

Sonoma Jet Center
 
Area around CL83 (Joe Heidrick Heliport)
 
Road maps at: MapQuest Bing Google
 
Aerial photo
No photo
 
Sectional chart

 
Airport distance calculator
Flying to Joe Heidrick Heliport? Find the distance to fly.

From to CL83

Sunrise and sunset
Times for 12-Nov-2019
 Local
(UTC-8)
 Zulu
(UTC)
Morning civil twilight06:1914:19
Sunrise06:4714:47
Sunset16:5600:56
Evening civil twilight17:2401:24

Current date and time
Zulu (UTC)  12-Nov-2019 22:01:08
Local (UTC-8)  12-Nov-2019 14:01:08
 
METAR
KEDU 
8nm S 
122155Z AUTO 34006KT 10SM CLR 23/07 A3005 RMK AO1
KSMF 
11nm E 
122153Z 31006KT 10SM BKN250 23/07 A3004 RMK AO2 SLP170 T02280072
KVCB 
18nm S 
122153Z AUTO 36004KT 10SM CLR 25/08 A3005 RMK AO2 SLP174 T02500078
KSAC 
18nm SE 
122153Z 36007KT 10SM CLR 24/07 A3004 RMK AO2 SLP171 T02390067 $
KMCC 
20nm E 
122155Z AUTO 32005KT 10SM 23/06 A3006 RMK AO2
TAF
KSMF 
11nm E 
121734Z 1218/1318 VRB04KT P6SM BKN250 TEMPO 1314/1318 5SM HZ
KSAC 
18nm SE 
121734Z 1218/1318 VRB04KT P6SM BKN250 TEMPO 1314/1318 4SM HZ
KMCC 
20nm E 
121734Z 1218/1318 VRB04KT P6SM BKN250 TEMPO 1314/1318 5SM HZ
NOTAMs
Click for the latest NOTAMs
NOTAMs are issued by the DoD/FAA and will open in a separate window not controlled by AirNav.

 

 
 

Would you like to see your business listed on this page?

 If your business provides an interesting product or service to pilots, flight crews, aircraft, or users of the Joe Heidrick Heliport, you should consider listing it here.  To start the listing process, click on the button below
 
Add a business
 

Other Pages about Joe Heidrick Heliport

Update a link
 
Copyright © AirNav, LLC. All rights reserved. Privacy Policy  Contact